Regional Weather Roundup
Issued by NWS Memphis, TN

Home | Current Version | Previous Version | Text Only | Print | Product List | Glossary On
Versions: 1 2 3 4 5 6 7 8 9 10 11 12 13 14 15 16 17 18 19 20 21 22 23 24 25 26 27 28 29 30 31 32 33 34 35 36 37 38 39 40 41 42 43 44 45 46 47 48 49 50
000
ASUS44 KMEG 200410
RWRMEG
MEMPHIS CWA HOURLY WEATHER ROUNDUP
NATIONAL WEATHER SERVICE MEMPHIS TN
1100 PM CDT FRI SEP 19 2014

...WEST TENNESSEE...

CITY           SKY/WX    TMP DP  RH WIND       PRES   REMARKS
MEMPHIS INTL   CLEAR     72  67  84 CALM      30.03S
NWS MEMPHIS      N/A     70 N/A N/A MISG        N/A
JACKSON        FOG       66  66 100 CALM      30.05R VSB 3/4
LEXINGTON        N/A     66  66 100 CALM      30.04S VSB 3/4
SAVANNAH       CLEAR     64  64 100 CALM      30.05S
DYERSBURG      CLEAR     66  57  72 CALM      30.05S
UNION CITY       N/A     63  63 100 CALM      30.03S VSB 1/2
PARIS          CLEAR     61  59  94 CALM      30.06R
HUNTINGDON     CLEAR     64  63  97 CALM      30.05S


...EASTERN ARKANSAS...

CITY           SKY/WX    TMP DP  RH WIND       PRES   REMARKS
JONESBORO      CLEAR     68  66  93 CALM      30.02S
WEST MEMPHIS   CLEAR     69  69 100 CALM      30.02R
BATESVILLE     CLEAR     68  64  88 CALM      30.03S
NEWPORT        CLEAR     69  67  93 CALM      30.03R
WALNUT RIDGE   CLEAR     68  64  88 CALM      30.03R
BLYTHEVILLE    CLEAR     70  67  90 CALM      30.03S
SEARCY         CLEAR     68  67  96 CALM      30.03R
STUTTGART      CLEAR     73  64  73 E3        30.03R
PINE BLUFF     CLEAR     71  67  87 CALM      30.01S
MONTICELLO     CLEAR     71  68  90 CALM      30.00R


...NORTH MISSISSIPPI...

CITY           SKY/WX    TMP DP  RH WIND       PRES   REMARKS
TUPELO         CLEAR     73  68  84 NE3       30.03R
OXFORD         CLEAR     66  66 100 CALM      30.05S
OLIVE BRANCH   CLEAR     70  70 100 CALM      30.04S
CLARKSDALE     CLEAR     70  70 100 CALM      30.03R
CORINTH          N/A     66  64  94 CALM      30.04R
GRENADA        CLEAR     70  68  94 CALM      30.02S
GREENWOOD      CLEAR     72  68  87 NE3       30.00S
COLUMBUS       CLEAR     71  67  87 E1        30.03R
STARKVILLE     FAIR      73  64  73 E5        30.03R
GOLDEN TRIANGL CLEAR     75  64  69 E8        30.03S


...SOUTHEAST MISSOURI...

CITY           SKY/WX    TMP DP  RH WIND       PRES   REMARKS
WEST PLAINS    CLEAR     66  63  90 CALM      30.07R
POPLAR BLUFF   CLEAR     62  59  90 CALM      30.03R FOG
CAPE GIRARDEAU CLEAR     60  58  92 CALM      30.04R


...NORTHWEST ALABAMA...

CITY           SKY/WX    TMP DP  RH WIND       PRES   REMARKS
MUSCLE SHOALS  MOCLDY    73  66  78 E5        30.07R


...MIDDLE TENNESSEE...

CITY           SKY/WX    TMP DP  RH WIND       PRES   REMARKS
NASHVILLE      PTCLDY    70  65  84 SE3       30.07R
CLARKSVILLE    CLEAR     67  62  84 CALM      30.05S
DICKSON        CLEAR     66  64  94 CALM      30.06S
COLUMBIA       MOCLDY    70  70 100 CALM      30.07R
LEWISBURG      PTCLDY    70  66  86 CALM      30.07R


...WESTERN KENTUCKY...

CITY           SKY/WX    TMP DP  RH WIND       PRES   REMARKS
PADUCAH        CLEAR     65  60  84 CALM      30.04R
FORT CAMPBELL  CLEAR     68  65  92 CALM      30.05S


...CENTRAL ARKANSAS...

CITY           SKY/WX    TMP DP  RH WIND       PRES   REMARKS
LITTLE ROCK    CLEAR     74  67  78 CALM      30.02R


SKY/WX REPORTED AS FAIR MEANS FEW OR NO CLOUDS BELOW
12 THOUSAND FEET.




USA.gov is the U.S. government's official web portal to all federal, state and local government web resources and services.